SWA3535 KMCO-KPBI

Flight info

Callsign SWA3535
Flight time N/A
Altitude 17000
Route DDANY3 BORRD CPTAN3
Aircraft B38M/M-SADE2E3GHIJ4J7P2RWZ/LB1D1

Departure

Time N/A
Airport Orlando International Airport (KMCO)

Arrival

Time 2026-04-29 14:55
Airport Palm Beach International Airport (KPBI)
Time Latitude Longitude Altitude Speed Heading
2026-04-29 14:45 26.51184 -80.23122 4969 ft 244 kts 269°
2026-04-29 14:46 26.51168 -80.25015 4804 ft 244 kts 270°
2026-04-29 14:46 26.51153 -80.26902 4646 ft 243 kts 270°
2026-04-29 14:46 26.51140 -80.28791 4505 ft 243 kts 270°
2026-04-29 14:46 26.51230 -80.30671 4350 ft 242 kts 275°
2026-04-29 14:47 26.51552 -80.32502 4183 ft 241 kts 292°
2026-04-29 14:47 26.52263 -80.34196 4057 ft 241 kts 297°
2026-04-29 14:47 26.53204 -80.35730 3886 ft 239 kts 315°
2026-04-29 14:47 26.54082 -80.36454 3752 ft 237 kts 339°
2026-04-29 14:48 26.56210 -80.36565 3525 ft 227 kts 10°
2026-04-29 14:48 26.57744 -80.36267 3376 ft 221 kts 10°
2026-04-29 14:48 26.59237 -80.35951 3208 ft 216 kts 14°
2026-04-29 14:48 26.60666 -80.35478 3121 ft 214 kts 19°
2026-04-29 14:49 26.62062 -80.34971 3013 ft 213 kts 19°
2026-04-29 14:49 26.63471 -80.34453 2856 ft 213 kts 18°
2026-04-29 14:49 26.64862 -80.33944 2700 ft 207 kts 19°
2026-04-29 14:49 26.66211 -80.33452 2555 ft 202 kts 18°
2026-04-29 14:50 26.67541 -80.32964 2472 ft 200 kts 19°
2026-04-29 14:50 26.68797 -80.32317 2436 ft 199 kts 41°
2026-04-29 14:50 26.69549 -80.31058 2466 ft 195 kts 74°
2026-04-29 14:50 26.69546 -80.29597 2485 ft 188 kts 106°
2026-04-29 14:51 26.69201 -80.28189 2523 ft 188 kts 101°
2026-04-29 14:51 26.69031 -80.26740 2514 ft 188 kts 95°
2026-04-29 14:51 26.68943 -80.25285 2460 ft 188 kts 93°
2026-04-29 14:51 26.68880 -80.23828 2240 ft 187 kts 93°
2026-04-29 14:52 26.68818 -80.22377 2028 ft 187 kts 93°
2026-04-29 14:52 26.68758 -80.20944 1801 ft 180 kts 93°
2026-04-29 14:52 26.68699 -80.19578 1575 ft 173 kts 93°
2026-04-29 14:52 26.68643 -80.18297 1391 ft 155 kts 93°
2026-04-29 14:53 26.68593 -80.17142 1196 ft 149 kts 93°
2026-04-29 14:53 26.68544 -80.15989 992 ft 148 kts 93°
2026-04-29 14:53 26.68494 -80.14843 801 ft 148 kts 93°
2026-04-29 14:53 26.68444 -80.13694 615 ft 148 kts 94°
2026-04-29 14:54 26.68394 -80.12538 429 ft 149 kts 94°
2026-04-29 14:54 26.68351 -80.11369 219 ft 151 kts 93°
2026-04-29 14:54 26.68297 -80.10196 35 ft 149 kts 94°
2026-04-29 14:54 26.68250 -80.09204 28 ft 94 kts 93°
2026-04-29 14:55 26.68236 -80.08757 27 ft 36 kts 81°
2026-04-29 14:55 26.68307 -80.08652 26 ft 0 kts 342°
2026-04-29 14:55 26.68310 -80.08655 26 ft 0 kts 327°
2026-04-29 14:55 26.68318 -80.08662 25 ft 4 kts 317°
2026-04-29 14:56 26.68339 -80.08726 26 ft 15 kts 274°
2026-04-29 14:56 26.68346 -80.08868 24 ft 20 kts 273°
2026-04-29 14:56 26.68352 -80.09034 24 ft 22 kts 273°
2026-04-29 14:56 26.68359 -80.09179 24 ft 17 kts 272°
2026-04-29 14:57 26.68365 -80.09300 27 ft 15 kts 281°
2026-04-29 14:57 26.68437 -80.09397 24 ft 18 kts 313°
2026-04-29 14:57 26.68530 -80.09501 27 ft 20 kts 314°
2026-04-29 14:57 26.68623 -80.09604 25 ft 12 kts 317°
2026-04-29 14:58 26.68691 -80.09596 25 ft 12 kts 44°
2026-04-29 14:58 26.68703 -80.09581 26 ft 1 kts 53°
2026-04-29 14:58 26.68708 -80.09561 24 ft 5 kts 86°
2026-04-29 14:58 26.68696 -80.09506 26 ft 8 kts 76°
2026-04-29 14:59 26.68746 -80.09443 24 ft 15 kts 47°
2026-04-29 14:59 26.68768 -80.09351 24 ft 13 kts 134°
2026-04-29 14:59 26.68748 -80.09335 25 ft 3 kts 144°
2026-04-29 14:59 26.68733 -80.09322 24 ft 0 kts 143°